Location: Newark
(48.6461°N, 4.3644°W)
Time: 15:24:25
(UTC+00:00)

Transit 4A - Pass Details

Date: 30 January 2020
Orbit: 872 x 973 km, 66.8° (Epoch: 26 February)

Event Time Altitude Azimuth Distance (km) Brightness Sun altitude
Rises 08:38:05 0° 277° (W) 3,510 10.4 5.9°
Reaches altitude 10° 08:41:31 10° 296° (WNW) 2,556 9.6 6.4°
Maximum altitude 08:45:23 18° 338° (NNW) 2,050 9.3 6.9°
Drops below altitude 10° 08:49:14 10° 19° (NNE) 2,536 10.0 7.4°
Sets 08:52:38 0° 39° (NE) 3,472 10.9 7.8°
